Date_and_time,latitude,longitude,wind_speed,RelWindDirFrom,WindDirFrom,air_pressure,air_temperature,relative_humidity,Temp,platform_speed_wrt_ground,air_pressure_at_mean_sea_level,platform_orientation
2018-07-03 23:50,50.9117383333333,-96.9825283333333,8.1,10.4,49,988.70,23.8,67,21.39,0.0,1014.36,360.0
2018-07-04 00:00,50.9117416666667,-96.9825216666667,8.3,9.6,51,988.69,23.9,66,21.43,0.0,1014.34,312.1
2018-07-04 00:10,50.91174,-96.982525,7.5,8.7,51,988.66,23.9,68,21.46,0.0,1014.31,312.1
2018-07-04 00:20,50.9117383333333,-96.982525,7.2,9.0,53,988.65,23.9,69,21.47,0.0,1014.30,312.1
2018-07-04 00:30,50.9117366666667,-96.982525,8.1,9.8,53,988.61,23.9,68,21.49,0.0,1014.27,312.1
2018-07-04 00:40,50.9117366666667,-96.9825266666667,6.9,8.6,55,988.70,24.0,68,21.52,0.0,1014.35,312.1
2018-07-04 00:50,50.9117366666667,-96.9825283333333,7.3,8.6,51,988.73,23.9,69,21.54,0.0,1014.38,312.1
2018-07-04 01:00,50.9117366666667,-96.9825266666667,7.3,8.7,50,988.74,23.9,68,21.55,0.0,1014.39,90.0
2018-07-04 01:10,50.911725,-96.9825266666667,7.2,8.2,52,988.76,23.8,69,21.57,0.0,1014.41,90.0
2018-07-04 01:20,50.9117366666667,-96.9825216666667,7.2,8.5,51,988.78,23.6,71,21.59,0.0,1014.43,90.0
2018-07-04 01:30,50.9117383333333,-96.9825266666667,7.2,8.6,54,988.75,23.5,72,21.59,0.0,1014.39,90.0
2018-07-04 01:40,50.9117533333333,-96.98256,7.0,8.8,58,988.76,23.4,72,21.59,0.0,1014.40,90.0
2018-07-04 01:50,50.9117216666667,-96.9825133333333,6.6,8.2,63,988.77,23.4,74,21.58,0.0,1014.42,90.0
2018-07-04 02:00,50.9117233333333,-96.9825233333333,6.6,8.8,66,988.75,23.3,76,21.56,0.0,1014.39,170.2
2018-07-04 02:10,50.9117266666667,-96.9825283333333,6.2,7.8,71,988.86,23.1,75,21.54,0.0,1014.51,170.2
2018-07-04 02:20,50.9117283333333,-96.98253,7.5,9.6,73,988.93,23.1,72,21.52,0.0,1014.59,170.2
2018-07-04 02:30,50.9117366666667,-96.982555,9.6,11.3,77,988.93,23.0,73,21.52,0.0,1014.59,170.2
2018-07-04 02:40,50.9117333333333,-96.9825366666667,10.0,11.2,78,988.97,22.7,74,21.51,0.0,1014.64,170.2
2018-07-04 02:50,50.9117383333333,-96.982535,10.4,11.8,81,989.05,22.6,76,21.49,0.0,1014.73,170.2
2018-07-04 03:00,50.9117233333333,-96.98253,10.6,11.8,82,989.07,22.5,78,21.47,0.0,1014.76,202.7
2018-07-04 03:10,50.911725,-96.9825316666667,10.2,11.5,86,989.09,22.3,81,21.44,0.0,1014.80,202.7
2018-07-04 03:20,50.9117266666667,-96.9825316666667,10.2,11.9,89,989.18,22.2,84,21.40,0.0,1014.90,202.7
2018-07-04 03:30,50.9117283333333,-96.9825283333333,9.8,11.2,95,989.34,22.1,88,21.35,0.0,1015.07,202.7
2018-07-04 03:40,50.9117283333333,-96.9825283333333,10.1,11.3,98,989.24,22.0,90,21.31,0.0,1014.97,202.7
2018-07-04 03:50,50.9117366666667,-96.982535,9.4,11.1,96,989.29,22.0,90,21.27,0.0,1015.03,202.7
2018-07-04 04:00,50.9117183333333,-96.9825433333333,9.5,11.1,98,989.42,22.0,88,21.24,0.0,1015.18,206.6
2018-07-04 04:10,50.9117233333333,-96.982495,9.5,11.1,94,989.48,21.9,89,21.22,0.0,1015.24,206.6
2018-07-04 04:20,50.9117283333333,-96.9825116666667,10.1,11.9,92,989.51,21.9,85,21.19,0.0,1015.28,206.6
2018-07-04 04:30,50.911725,-96.9825166666667,10.2,12.3,88,989.59,21.9,84,21.17,0.0,1015.37,206.6
2018-07-04 04:40,50.9117233333333,-96.98252,11.9,14.1,87,989.58,21.9,81,21.17,0.0,1015.37,206.6
2018-07-04 04:50,50.9117233333333,-96.982525,12.8,15.0,84,989.49,21.9,79,21.17,0.0,1015.28,206.6
2018-07-04 05:00,50.9117233333333,-96.9825266666667,13.4,16.3,84,989.47,21.8,79,21.18,0.0,1015.27,270.0
2018-07-04 05:10,50.911725,-96.9825266666667,15.1,17.4,88,989.56,21.7,78,21.17,0.0,1015.37,270.0
2018-07-04 05:20,50.9117266666667,-96.9825283333333,15.0,17.3,89,989.43,21.6,79,21.15,0.0,1015.25,270.0
2018-07-04 05:30,50.911715,-96.9825216666667,15.9,18.4,88,989.16,21.4,79,21.12,0.0,1014.98,270.0
2018-07-04 05:40,50.91173,-96.9825083333333,16.6,19.0,89,989.03,21.4,78,21.10,0.0,1014.85,270.0
2018-07-04 05:50,50.9117233333333,-96.9825333333333,16.4,19.2,92,988.96,21.3,79,21.07,0.0,1014.78,270.0
2018-07-04 06:00,50.9117216666667,-96.9825316666667,17.0,20.1,91,988.70,21.3,79,21.04,0.0,1014.52,360.0
2018-07-04 06:10,50.9117233333333,-96.9825283333333,16.9,19.0,89,988.50,21.1,80,21.01,0.0,1014.32,360.0
2018-07-04 06:20,50.9117216666667,-96.9825283333333,17.1,20.4,90,988.20,21.0,82,20.98,0.0,1014.02,360.0
2018-07-04 06:30,50.9117216666667,-96.9825266666667,18.3,21.2,90,987.94,20.9,82,20.94,0.0,1013.76,360.0
2018-07-04 06:40,50.9117233333333,-96.9825366666667,19.4,22.5,92,987.54,20.8,82,20.91,0.0,1013.35,360.0
2018-07-04 06:50,50.911735,-96.9825316666667,20.4,24.5,92,987.02,20.7,82,20.87,0.0,1012.82,360.0
2018-07-04 07:00,50.91173,-96.9825266666667,20.5,24.1,93,986.81,20.7,83,20.84,0.0,1012.61,40.6
2018-07-04 07:10,50.9117283333333,-96.9825266666667,21.5,25.4,95,986.58,20.6,82,20.81,0.0,1012.39,40.6
2018-07-04 07:20,50.91173,-96.9825316666667,20.2,24.9,102,986.99,20.6,83,20.78,0.0,1012.82,40.6
2018-07-04 07:30,50.9117316666667,-96.98253,18.5,21.9,105,987.34,20.6,83,20.76,0.0,1013.18,40.6
2018-07-04 07:40,50.9117333333333,-96.9825316666667,18.5,21.7,103,987.07,20.6,84,20.75,0.0,1012.90,40.6
2018-07-04 07:50,50.9117333333333,-96.9825333333333,17.3,21.7,107,987.32,20.6,85,20.73,0.0,1013.16,40.6
2018-07-04 08:00,50.91173,-96.9825333333333,16.3,20.5,109,987.39,20.6,86,20.72,0.0,1013.25,312.1
2018-07-04 08:10,50.9117316666667,-96.9825316666667,18.4,21.3,106,986.99,20.6,86,20.71,0.0,1012.83,312.1
2018-07-04 08:20,50.91173,-96.98253,18.5,21.7,101,986.78,20.5,87,20.70,0.0,1012.63,312.1
2018-07-04 08:30,50.9117316666667,-96.98253,18.4,21.2,104,986.61,20.5,87,20.68,0.0,1012.46,312.1
2018-07-04 08:40,50.91172,-96.9825333333333,17.3,21.4,108,986.76,20.4,88,20.66,0.0,1012.62,312.1
2018-07-04 08:50,50.9117183333333,-96.98253,18.1,21.3,105,986.73,20.4,87,20.65,0.0,1012.59,312.1
2018-07-04 09:00,50.9117233333333,-96.9825383333333,17.8,21.5,104,986.48,20.4,88,20.64,0.0,1012.34,350.2
2018-07-04 09:10,50.9117216666667,-96.9825333333333,17.4,20.8,102,986.37,20.3,90,20.62,0.0,1012.23,350.2
2018-07-04 09:20,50.91172,-96.98253,13.8,18.9,113,986.58,20.0,90,20.60,0.0,1012.46,350.2
2018-07-04 09:30,50.911705,-96.9825283333333,13.6,17.3,119,986.55,19.7,90,20.58,0.0,1012.44,350.2
2018-07-04 09:40,50.9117133333333,-96.9825216666667,13.5,17.2,109,986.31,20.1,91,20.56,0.0,1012.18,350.2
2018-07-04 09:50,50.91172,-96.9825216666667,17.0,18.8,98,986.03,20.2,91,20.54,0.0,1011.89,350.2
2018-07-04 10:00,50.9117233333333,-96.9825233333333,16.5,18.9,97,985.81,20.1,92,20.52,0.0,1011.66,132.1
2018-07-04 10:10,50.911725,-96.9825233333333,15.2,17.9,99,985.82,20.1,94,20.50,0.0,1011.68,132.1
2018-07-04 10:20,50.9117283333333,-96.982525,16.5,19.0,96,985.59,20.1,94,20.49,0.0,1011.44,132.1
2018-07-04 10:30,50.9117266666667,-96.982525,14.3,16.9,92,985.59,20.1,96,20.47,0.0,1011.45,132.1
2018-07-04 10:40,50.9117266666667,-96.9825233333333,13.7,15.5,87,985.47,20.0,96,20.46,0.0,1011.32,132.1
2018-07-04 10:50,50.9117266666667,-96.9825233333333,12.4,15.2,79,985.24,20.0,97,20.44,0.0,1011.09,132.1
2018-07-04 11:00,50.911725,-96.9825233333333,14.2,17.9,84,985.23,19.9,99,20.42,0.0,1011.09,119.5
2018-07-04 11:10,50.911725,-96.982525,15.5,20.0,80,984.73,19.7,100,20.40,0.0,1010.61,119.5
2018-07-04 11:20,50.911725,-96.982525,15.3,20.9,75,983.88,19.6,100,20.36,0.0,1009.75,119.5
2018-07-04 11:30,50.91175,-96.9825233333333,15.6,21.3,63,982.93,19.5,100,20.30,0.0,1008.76,119.5
2018-07-04 11:40,50.9117483333333,-96.9825266666667,16.9,26.7,67,982.67,19.4,100,20.24,0.0,1008.49,119.5
2018-07-04 11:50,50.9117466666667,-96.9825283333333,23.8,28.8,81,982.78,19.5,100,20.20,0.0,1008.60,119.5
2018-07-04 12:00,50.9117366666667,-96.9825216666667,27.3,33.7,84,981.83,19.4,100,20.16,0.0,1007.63,36.0
2018-07-04 12:10,50.9117333333333,-96.982525,30.8,37.7,82,980.27,19.2,101,20.08,0.0,1006.04,36.0
2018-07-04 12:20,50.9117316666667,-96.9825233333333,27.4,34.9,78,979.80,19.4,100,20.03,0.0,1005.56,36.0
2018-07-04 12:30,50.911735,-96.9825233333333,26.5,33.4,80,979.73,19.5,100,20.04,0.0,1005.48,36.0
2018-07-04 12:40,50.91173,-96.9825166666667,30.7,39.9,83,979.37,19.5,100,20.02,0.0,1005.12,36.0
2018-07-04 12:50,50.9117333333333,-96.9825233333333,29.2,35.3,86,979.61,19.5,100,20.01,0.0,1005.36,36.0
2018-07-04 13:00,50.9117366666667,-96.9825333333333,26.1,32.9,98,980.51,19.8,100,20.04,0.0,1006.28,324.0
2018-07-04 13:10,50.9117283333333,-96.9825166666667,25.0,31.6,103,981.07,19.8,100,20.08,0.0,1006.86,324.0
2018-07-04 13:20,50.91173,-96.9825233333333,22.3,29.6,120,981.56,19.3,100,20.11,0.0,1007.39,324.0
2018-07-04 13:30,50.91173,-96.982525,24.6,32.0,122,981.42,19.4,100,20.16,0.0,1007.24,324.0
2018-07-04 13:40,50.91173,-96.9825266666667,21.7,28.0,139,981.86,19.4,100,20.20,0.0,1007.69,324.0
2018-07-04 13:50,50.911725,-96.982525,16.9,20.0,145,982.00,19.4,100,20.23,0.0,1007.83,324.0
2018-07-04 14:00,50.9117266666667,-96.982525,17.8,21.7,151,982.09,19.4,100,20.26,0.0,1007.94,350.2
2018-07-04 14:10,50.9117283333333,-96.982525,14.7,20.6,160,982.09,19.2,101,20.23,0.0,1007.94,350.2
2018-07-04 14:20,50.911735,-96.982485,15.0,21.3,163,981.56,19.1,101,20.05,0.0,1007.39,350.2
2018-07-04 14:30,50.9117333333333,-96.9825133333333,19.0,22.4,152,980.84,19.0,101,19.83,0.0,1006.66,350.2
2018-07-04 14:40,50.9117366666667,-96.9825133333333,17.2,20.1,146,980.29,19.0,101,19.64,0.0,1006.10,350.2
2018-07-04 14:50,50.9117683333333,-96.98254,18.5,23.5,163,979.95,19.4,101,19.52,0.0,1005.72,350.2
2018-07-04 15:00,50.9117333333333,-96.9825233333333,19.1,24.3,174,979.93,19.7,100,19.48,0.0,1005.68,360.0
2018-07-04 15:10,50.9117316666667,-96.982525,19.0,22.9,174,979.79,19.8,100,19.48,0.0,1005.55,360.0
2018-07-04 15:20,50.9117316666667,-96.9824816666667,19.0,23.3,175,979.75,19.8,100,19.48,0.0,1005.51,360.0
2018-07-04 15:30,50.9117333333333,-96.9825266666667,18.1,22.4,174,979.89,20.1,100,19.49,0.0,1005.64,360.0
2018-07-04 15:40,50.9117166666667,-96.9825133333333,17.5,22.9,181,979.70,20.4,100,19.52,0.0,1005.43,360.0
2018-07-04 15:50,50.911745,-96.9825333333333,15.3,22.1,186,979.80,20.9,100,19.56,0.0,1005.52,360.0
2018-07-04 16:00,50.9117216666667,-96.9825266666667,13.7,21.6,187,979.92,20.9,100,19.54,0.0,1005.65,360.0
2018-07-04 16:10,50.91173,-96.9825316666667,14.1,20.6,192,980.20,20.5,100,19.46,0.0,1005.95,360.0
2018-07-04 16:20,50.9117266666667,-96.9825333333333,11.8,17.1,191,980.19,20.5,100,19.36,0.0,1005.95,360.0
2018-07-04 16:30,50.9117283333333,-96.982555,10.6,17.1,190,980.25,20.8,100,19.29,0.0,1006.00,360.0
2018-07-04 16:40,50.911705,-96.98251,9.4,18.0,198,980.18,21.5,99,19.31,0.0,1005.88,360.0
2018-07-04 16:50,50.9117366666667,-96.9825483333333,10.2,18.9,203,980.08,22.5,93,19.45,0.0,1005.72,360.0
2018-07-04 17:00,50.911735,-96.982545,8.1,15.5,216,980.11,23.5,86,19.70,0.0,1005.70,291.8
2018-07-04 17:10,50.91173,-96.9825383333333,9.0,19.6,221,980.15,24.1,79,19.89,0.0,1005.72,291.8
2018-07-04 17:20,50.91173,-96.9825366666667,11.4,22.2,232,980.14,24.2,74,20.03,0.0,1005.69,291.8
2018-07-04 17:30,50.9117316666667,-96.9825233333333,11.9,24.9,233,980.23,24.5,73,20.20,0.0,1005.75,291.8
2018-07-04 17:40,50.9117333333333,-96.9825483333333,12.3,23.6,229,980.34,24.7,68,20.32,0.0,1005.83,291.8
2018-07-04 17:50,50.9117333333333,-96.982535,12.4,21.5,221,980.48,25.1,64,20.37,0.0,1005.96,291.8
2018-07-04 18:00,50.9117366666667,-96.982525,11.6,26.7,226,980.64,25.4,61,20.43,0.0,1006.13,350.2
2018-07-04 18:10,50.9117366666667,-96.9825233333333,11.3,21.8,222,980.82,25.4,60,20.47,0.0,1006.32,350.2
2018-07-04 18:20,50.9117233333333,-96.9825166666667,14.0,28.0,224,980.95,25.3,58,20.55,0.0,1006.44,350.2
2018-07-04 18:30,50.9117283333333,-96.982525,11.4,27.8,214,981.06,25.2,57,20.62,0.0,1006.52,350.2
2018-07-04 18:40,50.9117283333333,-96.982525,11.9,27.4,213,981.16,25.4,56,20.66,0.0,1006.58,350.2
2018-07-04 18:50,50.9117283333333,-96.9825266666667,11.4,23.4,228,981.32,25.3,56,20.72,0.0,1006.70,350.2
2018-07-04 19:00,50.91173,-96.9825266666667,12.5,24.0,227,981.55,25.2,56,20.72,0.0,1006.92,360.0
2018-07-04 19:10,50.9117183333333,-96.9825566666667,15.7,26.8,231,981.66,25.3,54,20.77,0.0,1007.02,360.0
2018-07-04 19:20,50.9117383333333,-96.9825266666667,12.2,24.6,227,981.68,25.2,55,20.80,0.0,1007.04,360.0
2018-07-04 19:30,50.9117283333333,-96.9825216666667,11.5,25.2,223,981.78,25.4,53,20.76,0.0,1007.12,360.0
2018-07-04 19:40,50.911735,-96.9825316666667,15.1,28.8,227,982.10,25.1,51,20.76,0.0,1007.45,360.0
2018-07-04 19:50,50.9117366666667,-96.9825566666667,16.1,29.2,237,982.21,24.9,51,20.74,0.0,1007.55,360.0
2018-07-04 20:00,50.9117416666667,-96.982535,11.6,24.4,236,982.31,25.0,51,20.70,0.0,1007.66,60.5
2018-07-04 20:10,50.9117433333333,-96.9825383333333,16.7,30.3,235,982.45,25.0,46,20.67,0.0,1007.79,60.5
2018-07-04 20:20,50.9117416666667,-96.982535,15.8,28.8,230,982.56,24.8,45,20.68,0.0,1007.92,60.5
2018-07-04 20:30,50.9117416666667,-96.9825316666667,13.3,26.0,238,982.60,24.9,45,20.70,0.0,1007.95,60.5
2018-07-04 20:40,50.91173,-96.9825266666667,11.2,25.2,230,982.66,25.1,44,20.77,0.0,1008.02,60.5
2018-07-04 20:50,50.91173,-96.9825083333333,14.4,26.1,229,982.74,25.0,42,20.79,0.0,1008.10,60.5
2018-07-04 21:00,50.91173,-96.9825083333333,13.1,23.3,239,982.87,25.0,43,20.86,0.0,1008.23,113.9
2018-07-04 21:10,50.9117283333333,-96.9825166666667,14.3,25.7,245,983.00,24.9,43,20.94,0.0,1008.38,113.9
2018-07-04 21:20,50.9117266666667,-96.9825216666667,12.5,27.0,239,983.22,24.7,43,20.96,0.0,1008.59,113.9
2018-07-04 21:30,50.9117216666667,-96.9825166666667,14.4,30.3,229,983.41,24.4,42,20.95,0.0,1008.82,113.9
2018-07-04 21:40,50.9117266666667,-96.98252,12.9,25.2,227,983.46,24.2,42,20.99,0.0,1008.89,113.9
2018-07-04 21:50,50.91173,-96.9825666666667,14.2,30.0,229,983.49,24.3,40,21.00,0.0,1008.90,113.9
2018-07-04 22:00,50.9117383333333,-96.9825533333333,15.5,25.5,230,983.56,24.3,39,21.10,0.0,1008.98,305.8
2018-07-04 22:10,50.9117316666667,-96.9824833333333,14.4,28.8,229,983.66,24.3,40,21.18,0.0,1009.09,305.8
2018-07-04 22:20,50.91173,-96.9825166666667,14.8,28.6,229,983.71,24.1,40,21.23,0.0,1009.15,305.8
2018-07-04 22:30,50.9117466666667,-96.98254,16.1,29.1,231,983.80,24.0,40,21.24,0.0,1009.23,305.8
2018-07-04 22:40,50.9117333333333,-96.9825233333333,12.5,25.6,240,983.91,24.1,40,21.26,0.0,1009.35,305.8
2018-07-04 22:50,50.9117266666667,-96.9825233333333,13.4,26.7,232,984.08,24.1,40,21.22,0.0,1009.53,305.8
2018-07-04 23:00,50.9117333333333,-96.982525,12.9,22.0,230,984.18,23.8,41,21.19,0.0,1009.64,167.1
2018-07-04 23:10,50.911735,-96.9825316666667,12.7,27.6,237,984.22,23.9,41,21.15,0.0,1009.69,167.1
2018-07-04 23:20,50.9117366666667,-96.9825316666667,15.4,28.0,244,984.24,23.8,41,21.14,0.0,1009.73,167.1
2018-07-04 23:30,50.91174,-96.9825233333333,14.2,28.3,237,984.44,23.5,41,21.13,0.0,1009.96,167.1
